• In Netherlands
  • List of Countries
  • For 7 days
  • Water Temperature
  • Satellite Maps
  • Weather Map
  • Weather Widgets
  • user-avatar
    Login

    Hourly Weather Vyartsilya

    Today, 26 September, Wednesday

    Time Temperature Precipitation Wind Pressure Humidity
    00:00 +4°C° 0 mm 3 mps 751 mmHg 78%
    01:00 +4°C° 0 mm 4 mps 751 mmHg 80%
    02:00 +4°C° 0 mm 4 mps 750 mmHg 84%
    03:00 +5°C° 0.3 mm 4 mps 749 mmHg 85%
    04:00 +5°C° 0.3 mm 4 mps 749 mmHg 86%
    05:00 +5°C° 0.3 mm 4 mps 748 mmHg 87%
    06:00 +6°C° 0.2 mm 4 mps 748 mmHg 86%
    07:00 +6°C° 0.2 mm 5 mps 747 mmHg 85%
    08:00 +5°C° 0.2 mm 6 mps 746 mmHg 84%
    09:00 +7°C° 0.4 mm 6 mps 745 mmHg 84%
    10:00 +6°C° 0.4 mm 7 mps 744 mmHg 83%
    11:00 +6°C° 0.4 mm 7 mps 743 mmHg 83%
    12:00 +6°C° 1.5 mm 7 mps 741 mmHg 85%
    13:00 +6°C° 1.5 mm 7 mps 739 mmHg 87%
    14:00 +6°C° 1.5 mm 8 mps 738 mmHg 89%
    15:00 +6°C° 2.5 mm 7 mps 736 mmHg 90%
    16:00 +6°C° 2.5 mm 7 mps 734 mmHg 91%
    17:00 +6°C° 2.5 mm 7 mps 733 mmHg 92%
    18:00 +8°C° 1.3 mm 7 mps 732 mmHg 91%
    19:00 +8°C° 1.3 mm 6 mps 731 mmHg 90%
    20:00 +8°C° 1.3 mm 6 mps 730 mmHg 90%
    21:00 +7°C° 0.1 mm 6 mps 730 mmHg 87%
    22:00 +5°C° 0.1 mm 6 mps 730 mmHg 83%
    23:00 +5°C° 0.1 mm 6 mps 729 mmHg 80%

    Tomorrow, 27 September, Thursday

    Time Temperature Precipitation Wind Pressure Humidity
    00:00 +5°C° 0 mm 6 mps 729 mmHg 79%
    01:00 +5°C° 0 mm 7 mps 729 mmHg 78%
    02:00 +5°C° 0 mm 7 mps 729 mmHg 77%
    03:00 +5°C° 0.4 mm 7 mps 729 mmHg 78%
    04:00 +5°C° 0.4 mm 8 mps 729 mmHg 79%
    05:00 +5°C° 0.4 mm 8 mps 728 mmHg 80%
    06:00 +5°C° 0.3 mm 8 mps 729 mmHg 80%
    07:00 +5°C° 0.3 mm 8 mps 729 mmHg 79%
    08:00 +4°C° 0.3 mm 8 mps 730 mmHg 79%
    09:00 +5°C° 0.4 mm 8 mps 731 mmHg 80%
    10:00 +5°C° 0.4 mm 8 mps 731 mmHg 81%
    11:00 +5°C° 0.4 mm 8 mps 732 mmHg 81%
    12:00 +5°C° 0.3 mm 8 mps 733 mmHg 82%
    13:00 +5°C° 0.3 mm 8 mps 734 mmHg 82%
    14:00 +5°C° 0.3 mm 9 mps 734 mmHg 82%
    15:00 +5°C° 0.1 mm 9 mps 735 mmHg 82%
    16:00 +5°C° 0.1 mm 8 mps 736 mmHg 81%
    17:00 +4°C° 0.1 mm 8 mps 737 mmHg 81%
    18:00 +4°C° 0 mm 8 mps 737 mmHg 80%
    19:00 +4°C° 0 mm 7 mps 738 mmHg 80%
    20:00 +3°C° 0 mm 7 mps 739 mmHg 79%
    21:00 +2°C° 0 mm 6 mps 739 mmHg 79%
    22:00 +2°C° 0 mm 5 mps 739 mmHg 80%
    23:00 +1°C° 0 mm 5 mps 739 mmHg 80%

    Day after tomorrow, 28 September, Friday

    Time Temperature Precipitation Wind Pressure Humidity
    00:00 +1°C° 0 mm 4 mps 739 mmHg 81%
    01:00 0°C° 0 mm 4 mps 739 mmHg 81%
    02:00 0°C° 0 mm 4 mps 739 mmHg 82%
    03:00 -1°C° 0 mm 4 mps 739 mmHg 82%
    04:00 -1°C° 0 mm 4 mps 739 mmHg 83%
    05:00 -1°C° 0 mm 4 mps 739 mmHg 84%
    06:00 -1°C° 0 mm 4 mps 739 mmHg 82%
    07:00 -1°C° 0 mm 5 mps 739 mmHg 80%
    08:00 0°C° 0 mm 5 mps 739 mmHg 79%
    09:00 0°C° 0 mm 5 mps 739 mmHg 75%
    10:00 -1°C° 0 mm 6 mps 740 mmHg 72%
    11:00 +1°C° 0 mm 6 mps 740 mmHg 68%
    12:00 +1°C° 0 mm 6 mps 741 mmHg 66%
    13:00 +1°C° 0 mm 6 mps 741 mmHg 63%
    14:00 +1°C° 0 mm 6 mps 742 mmHg 60%
    15:00 +1°C° 0 mm 6 mps 743 mmHg 60%
    16:00 +1°C° 0 mm 6 mps 743 mmHg 60%
    17:00 +1°C° 0 mm 6 mps 744 mmHg 60%
    18:00 +1°C° 0 mm 6 mps 744 mmHg 60%
    19:00 +1°C° 0 mm 6 mps 745 mmHg 61%
    20:00 -1°C° 0 mm 6 mps 745 mmHg 62%
    21:00 -1°C° 0 mm 6 mps 746 mmHg 63%
    22:00 -1°C° 0 mm 6 mps 747 mmHg 64%
    23:00 -1°C° 0 mm 6 mps 747 mmHg 64%

    29 September, Saturday

    Time Temperature Precipitation Wind Pressure Humidity
    00:00 -1°C° 0 mm 5 mps 748 mmHg 66%
    01:00 -1°C° 0 mm 5 mps 749 mmHg 67%
    02:00 -1°C° 0 mm 5 mps 749 mmHg 68%
    03:00 -2°C° 0 mm 5 mps 750 mmHg 70%
    04:00 -2°C° 0 mm 5 mps 750 mmHg 71%
    05:00 -2°C° 0 mm 4 mps 751 mmHg 72%
    06:00 -2°C° 0 mm 5 mps 751 mmHg 70%
    07:00 -1°C° 0 mm 5 mps 752 mmHg 68%
    08:00 -1°C° 0 mm 5 mps 752 mmHg 66%
    09:00 0°C° 0 mm 5 mps 753 mmHg 60%
    10:00 +1°C° 0 mm 5 mps 753 mmHg 55%
    11:00 +2°C° 0 mm 5 mps 754 mmHg 49%
    12:00 +4°C° 0 mm 4 mps 754 mmHg 47%
    13:00 +4°C° 0 mm 4 mps 754 mmHg 45%
    14:00 +4°C° 0 mm 4 mps 754 mmHg 44%
    15:00 +4°C° 0 mm 4 mps 754 mmHg 48%
    16:00 +3°C° 0 mm 3 mps 754 mmHg 52%
    17:00 +3°C° 0 mm 2 mps 754 mmHg 56%
    18:00 +2°C° 0 mm 3 mps 754 mmHg 58%
    19:00 +1°C° 0 mm 3 mps 754 mmHg 61%
    20:00 +1°C° 0 mm 3 mps 754 mmHg 64%
    21:00 +2°C° 0 mm 3 mps 754 mmHg 65%
    22:00 +3°C° 0 mm 4 mps 753 mmHg 66%
    23:00 +3°C° 0 mm 4 mps 753 mmHg 67%

    30 September, Sunday

    Time Temperature Precipitation Wind Pressure Humidity
    00:00 +3°C° 0.2 mm 5 mps 752 mmHg 70%
    01:00 +3°C° 0.2 mm 5 mps 752 mmHg 73%
    02:00 +3°C° 0.2 mm 6 mps 751 mmHg 76%
    03:00 +3°C° 0.3 mm 6 mps 751 mmHg 76%
    04:00 +3°C° 0.3 mm 6 mps 750 mmHg 77%
    05:00 +3°C° 0.3 mm 6 mps 749 mmHg 77%
    06:00 +3°C° 0.5 mm 6 mps 749 mmHg 80%
    07:00 +3°C° 0.5 mm 5 mps 748 mmHg 83%
    08:00 +5°C° 0.5 mm 5 mps 748 mmHg 86%
    09:00 +5°C° 0.4 mm 5 mps 748 mmHg 86%
    10:00 +6°C° 0.4 mm 5 mps 747 mmHg 85%
    11:00 +7°C° 0.4 mm 4 mps 747 mmHg 84%
    12:00 +7°C° 0 mm 4 mps 747 mmHg 84%
    13:00 +7°C° 0 mm 4 mps 746 mmHg 83%
    14:00 +8°C° 0 mm 4 mps 746 mmHg 82%
    15:00 +7°C° 0.1 mm 4 mps 746 mmHg 84%
    16:00 +7°C° 0.1 mm 4 mps 746 mmHg 86%
    17:00 +7°C° 0.1 mm 4 mps 746 mmHg 88%
    18:00 +7°C° 0.1 mm 4 mps 746 mmHg 88%
    19:00 +7°C° 0.1 mm 4 mps 746 mmHg 88%
    20:00 +6°C° 0.1 mm 4 mps 746 mmHg 88%
    21:00 +7°C° 0 mm 3 mps 747 mmHg 89%
    22:00 +5°C° 0 mm 3 mps 747 mmHg 90%
    23:00 +5°C° 0 mm 3 mps 747 mmHg 92%

    1 October, Monday

    Time Temperature Precipitation Wind Pressure Humidity
    00:00 +5°C° 0 mm 3 mps 747 mmHg 93%
    01:00 +4°C° 0 mm 3 mps 747 mmHg 94%
    02:00 +5°C° 0 mm 2 mps 747 mmHg 95%
    03:00 +5°C° 0 mm 2 mps 747 mmHg 95%
    04:00 +5°C° 0 mm 2 mps 747 mmHg 96%
    05:00 +5°C° 0 mm 2 mps 747 mmHg 96%
    06:00 +6°C° 0.3 mm 2 mps 747 mmHg 96%
    07:00 +6°C° 0.3 mm 2 mps 746 mmHg 96%
    08:00 +7°C° 0.3 mm 2 mps 746 mmHg 95%
    09:00 +7°C° 0.1 mm 2 mps 747 mmHg 93%
    10:00 +8°C° 0.1 mm 2 mps 747 mmHg 90%
    11:00 +9°C° 0.1 mm 2 mps 747 mmHg 87%
    12:00 +9°C° 0.1 mm 2 mps 748 mmHg 85%
    13:00 +10°C° 0.1 mm 2 mps 748 mmHg 82%
    14:00 +10°C° 0.1 mm 2 mps 748 mmHg 79%
    15:00 +9°C° 0.1 mm 2 mps 748 mmHg 82%
    16:00 +9°C° 0.1 mm 2 mps 748 mmHg 85%
    17:00 +8°C° 0.1 mm 2 mps 749 mmHg 87%
    18:00 +7°C° 0 mm 2 mps 749 mmHg 89%
    19:00 +7°C° 0 mm 2 mps 749 mmHg 90%
    20:00 +7°C° 0 mm 1 mps 750 mmHg 91%
    21:00 +7°C° 0 mm 1 mps 750 mmHg 91%
    22:00 +7°C° 0 mm 1 mps 750 mmHg 92%
    23:00 +6°C° 0 mm 1 mps 750 mmHg 92%
    Show more